GFSCGP_925_temp_351.txt.gz
Temp
8 9 7 8 11 13 13 13 14 15 18 18 18 18 17 16 16 16 16 17 17 17 16 17 17 18 17 16 17 17 17 17 17 17 17 17 17 17 17 16 16 16 16 16
8 9 10 10 12 13 12 13 13 16 16 19 17 19 17 16 16 16 16 17 17 17 16 16 16 17 17 15 15 17 17 16 17 17 17 17 17 17 17 16 16 16 16 16
10 10 11 11 12 12 12 11 11 14 17 18 17 16 16 15 16 16 17 17 17 16 16 16 16 16 16 16 16 16 16 16 17 17 17 17 17 17 17 16 16 16 16 16
10 12 12 11 13 14 13 12 11 14 16 17 18 15 15 16 16 16 16 17 17 15 15 16 16 16 15 16 17 16 16 16 17 17 17 17 16 16 16 16 16 16 16 15
10 11 12 13 14 15 15 15 13 13 16 18 16 15 16 16 17 16 16 18 17 15 15 16 16 16 16 16 16 17 17 17 17 17 17 17 17 16 16 16 16 16 16 15
11 12 13 13 14 15 15 13 14 15 15 14 16 15 16 16 18 16 16 16 17 15 15 16 16 17 16 16 16 17 17 17 17 17 17 17 17 17 16 16 16 16 15 15
12 13 13 14 14 14 15 13 13 13 13 14 16 17 16 16 18 18 16 16 16 16 15 15 15 16 16 16 16 17 17 17 17 17 18 17 17 17 17 16 16 16 15 15
11 12 13 15 15 14 15 14 13 12 13 13 15 15 18 17 18 19 17 17 17 16 16 16 15 16 16 16 16 16 16 17 17 18 18 17 17 17 17 17 16 16 16 16
11 13 15 15 16 16 15 14 16 14 15 14 14 17 18 17 16 17 17 16 16 15 16 16 15 16 16 16 16 16 16 16 17 18 18 17 17 17 17 17 17 17 17 17
11 13 14 16 16 16 16 16 15 14 14 15 13 16 15 15 15 16 16 16 15 15 14 14 14 14 15 15 16 16 16 16 17 17 17 17 17 17 17 17 17 17 17 17
9 12 14 16 15 15 15 15 16 15 13 13 13 15 16 17 16 15 17 16 15 12 9 8 8 10 11 13 14 14 15 15 16 16 16 16 17 17 16 17 17 17 17 17
9 9 13 14 15 15 15 15 15 13 16 13 13 14 12 15 16 16 16 15 11 10 7 6 8 8 9 9 10 11 10 11 13 14 14 15 15 15 15 16 15 16 16 17
7 11 10 11 14 15 15 15 16 15 14 14 13 15 13 11 14 15 15 11 9 7 6 5 7 7 7 7 7 8 9 9 9 10 10 11 13 13 14 14 14 14 15 15
8 9 11 12 13 14 15 15 16 15 13 13 13 16 16 14 12 10 8 7 6 6 6 5 4 6 5 5 6 6 7 7 8 8 9 8 9 9 10 10 11 11 12 13
7 8 10 12 13 14 14 15 14 14 14 14 16 16 16 13 11 9 7 7 7 6 5 5 3 3 4 3 3 4 4 4 5 6 6 6 6 6 7 7 8 9 8 8
5 7 8 10 12 13 13 13 13 14 14 14 15 15 14 13 9 9 8 8 7 7 6 5 5 3 3 3 2 2 2 3 4 4 4 4 4 5 5 5 5 5 6 6
4 6 7 9 10 10 11 11 12 13 14 15 14 16 13 13 10 9 8 7 7 6 5 4 3 2 2 2 2 2 2 2 3 3 3 3 3 3 4 4 4 4 5 5
5 6 8 9 8 9 14 11 13 14 14 12 14 13 12 12 11 10 8 8 7 6 5 3 2 1 2 2 2 2 2 1 1 1 1 1 1 1 2 2 2 2 3 3
4 5 8 10 9 9 12 11 10 11 12 12 13 13 10 7 9 10 7 7 6 4 2 1 1 1 1 1 1 1 1 1 0 -0 -0 -0 0 0 0 0 0 1 1 1
4 4 5 8 9 9 11 8 8 10 11 9 11 10 6 7 9 9 4 2 1 0 1 0 1 1 0 -0 0 0 -0 -1 -1 -1 -1 -1 -1 -1 -1 -1 -1 -1 -0 -0
3 3 4 6 8 5 6 7 7 8 11 6 6 7 5 8 6 2 0 -0 0 -0 -1 1 0 -0 -0 -1 -1 -1 -2 -2 -2 -2 -2 -2 -2 -2 -2 -2 -2 -1 -1 -1
4 4 3 4 6 6 5 6 8 6 6 6 6 6 3 2 1 1 -0 -1 -1 -1 -1 -1 -2 -2 -1 -1 -1 -2 -2 -3 -3 -3 -3 -3 -3 -3 -3 -2 -2 -2 -2 -2
3 5 4 6 6 6 4 4 3 2 4 6 6 5 2 1 1 -0 -1 -2 -2 -2 -2 -2 -2 -3 -3 -2 -2 -3 -4 -4 -4 -3 -3 -3 -3 -3 -3 -3 -3 -3 -3 -3
0 -2 1 4 5 6 5 3 3 3 4 4 4 3 2 2 0 -1 -2 -3 -3 -3 -2 -2 -3 -4 -4 -4 -3 -3 -4 -4 -4 -4 -4 -4 -4 -4 -4 -4 -4 -4 -4 -4
2 -1 -1 -0 1 2 4 2 4 3 3 3 3 2 2 0 -0 -1 -2 -3 -3 -3 -3 -3 -3 -4 -5 -5 -5 -5 -5 -5 -5 -5 -5 -5 -4 -4 -4 -4 -4 -4 -4 -4
-1 2 3 6 6 3 3 -0 -3 -1 1 1 1 2 1 0 -1 -2 -3 -3 -3 -3 -3 -3 -3 -4 -5 -5 -5 -5 -5 -5 -5 -5 -5 -5 -5 -5 -5 -5 -5 -5 -5 -5

GFSCGP_925_temp_354.txt.gz
Temp
8 6 7 8 8 12 13 14 15 15 14 13 14 18 16 16 16 16 16 18 17 17 16 17 17 17 17 17 16 16 17 18 18 17 17 17 17 16 16 16 16 16 16 16
8 6 8 9 12 13 12 15 14 14 14 13 16 17 15 15 15 16 16 18 18 17 15 15 16 16 17 16 16 16 17 17 17 17 17 17 17 16 16 16 16 16 16 16
8 9 10 10 12 13 12 11 13 14 14 13 14 16 16 15 15 16 16 17 18 17 16 16 16 15 15 15 15 16 16 17 17 17 17 17 17 16 16 16 16 16 16 16
11 10 11 11 12 14 12 13 14 12 12 13 15 16 15 16 16 15 15 15 18 18 15 16 16 16 15 15 15 15 16 16 16 15 16 17 16 15 16 16 16 16 16 16
9 9 11 12 13 14 14 12 13 14 12 12 15 15 16 15 16 15 14 15 17 18 15 15 15 16 15 15 15 15 15 16 16 16 17 16 16 16 16 16 16 16 16 15
10 12 13 13 14 14 13 13 13 13 13 13 15 14 15 16 17 15 15 15 16 18 14 15 15 16 16 15 15 15 15 16 15 15 17 16 16 16 16 16 16 16 15 15
12 13 13 14 14 14 13 12 13 13 13 13 14 16 15 15 17 18 16 15 16 17 14 14 14 15 15 15 15 15 16 16 16 16 17 17 17 16 16 16 16 15 15 15
9 12 13 14 14 14 14 14 13 13 13 14 15 15 17 17 17 19 17 17 16 16 15 15 15 15 16 15 15 15 15 16 16 17 17 17 17 17 16 16 16 16 16 15
11 13 14 14 15 15 13 13 15 12 13 14 13 14 16 16 15 15 15 15 15 15 15 15 15 15 15 16 15 15 16 16 16 17 16 17 17 17 16 16 16 16 16 16
11 12 14 14 16 16 14 15 14 12 12 15 12 14 16 14 15 15 16 15 15 15 15 14 14 15 15 15 15 15 16 16 16 16 16 16 17 17 17 17 16 16 16 16
8 11 13 14 15 14 14 14 15 14 12 12 13 15 18 15 16 15 16 15 15 14 14 14 14 14 13 14 15 15 15 15 15 15 16 16 17 17 17 17 16 16 16 16
9 9 12 13 15 14 14 14 14 13 15 12 12 13 12 13 15 16 17 16 15 15 14 8 7 9 11 12 13 15 15 15 15 15 15 15 15 16 16 16 16 16 16 16
8 10 10 12 15 14 14 14 14 13 12 13 12 14 12 12 13 13 14 13 12 9 7 7 7 8 8 9 10 11 12 13 13 13 13 14 14 14 14 14 14 14 15 14
7 9 11 13 14 14 13 14 14 14 12 13 12 14 14 14 14 12 11 9 7 6 6 6 7 7 7 7 8 8 9 10 10 10 11 11 12 12 12 12 12 12 13 13
7 8 10 11 12 13 14 14 13 13 13 14 15 14 15 15 14 10 8 6 6 5 5 6 7 6 5 5 5 6 6 7 7 8 8 8 8 8 9 8 9 9 10 10
4 7 8 10 11 11 12 12 12 12 14 13 14 14 15 13 8 7 7 7 7 8 7 6 6 6 5 4 4 4 5 6 6 6 6 6 6 6 7 6 7 7 7 8
4 5 6 8 10 10 11 12 11 12 12 14 13 16 13 12 12 11 7 7 8 7 7 6 5 5 4 4 4 4 4 4 4 4 4 4 4 4 4 4 5 5 5 6
5 6 6 7 7 9 14 11 12 13 14 11 13 13 12 13 11 11 9 8 8 7 6 5 3 2 2 3 3 2 2 2 2 2 2 2 2 2 2 2 3 2 2 3
4 5 7 7 8 8 11 10 11 11 12 11 12 13 11 9 9 10 7 7 6 4 2 1 2 3 2 2 2 2 1 1 1 0 0 0 1 1 1 1 1 1 1 1
4 4 5 6 9 7 11 8 7 8 9 7 7 7 9 8 10 13 5 3 2 1 1 -0 1 1 1 1 1 1 -0 -1 -1 -1 -1 -1 -1 -0 -0 -0 0 -0 0 1
3 2 4 6 7 5 6 7 6 8 10 6 5 6 6 7 6 1 1 -1 -0 -0 -1 -0 0 -0 1 0 0 -0 -1 -1 -0 -0 -0 -1 -1 -1 -1 -1 -1 -1 -1 -1
3 2 2 4 4 4 6 6 8 7 6 6 6 6 5 3 1 1 -1 -2 -2 -2 -2 -1 -1 -1 -1 -0 -0 -1 -2 -2 -2 -2 -2 -2 -2 -2 -2 -2 -2 -2 -2 -2
2 3 3 4 5 6 4 4 2 2 5 6 6 5 3 2 2 0 -1 -2 -2 -2 -2 -2 -2 -2 -2 -1 -1 -2 -3 -3 -3 -3 -3 -3 -3 -3 -3 -2 -3 -3 -2 -2
1 -3 1 2 5 5 6 2 3 3 4 5 5 4 2 2 1 0 -1 -2 -3 -3 -3 -3 -3 -4 -4 -3 -2 -2 -3 -3 -3 -3 -4 -4 -3 -4 -4 -3 -3 -3 -3 -4
1 -1 -0 -1 1 2 3 1 3 3 2 3 3 3 2 2 0 -0 -1 -2 -3 -3 -3 -3 -3 -4 -4 -4 -3 -4 -4 -4 -4 -4 -4 -4 -4 -4 -4 -4 -4 -4 -4 -4
-0 4 5 5 7 4 3 -2 -4 -2 0 1 1 2 2 1 0 -1 -2 -2 -3 -3 -3 -4 -4 -4 -5 -4 -4 -4 -4 -4 -4 -5 -5 -5 -5 -5 -5 -5 -5 -5 -5 -5

GFSCGP_925_temp_357.txt.gz
Temp
8 6 6 8 9 9 10 11 15 15 15 14 14 14 15 16 16 16 16 17 18 17 18 16 16 15 15 16 16 16 16 17 16 16 16 16 16 16 16 16 16 16 16 16
8 5 9 10 9 9 10 13 14 14 14 14 14 14 16 16 16 17 17 17 17 17 16 16 15 15 15 15 15 15 16 16 16 16 17 16 17 16 16 16 16 16 16 16
8 9 10 10 11 11 11 13 13 14 14 13 13 15 15 15 15 15 16 17 18 17 17 17 15 15 15 15 15 15 16 16 16 17 17 16 16 16 16 16 16 16 16 16
10 10 10 11 12 12 11 13 14 14 14 13 12 15 16 15 15 15 15 15 18 17 17 16 16 15 15 15 15 15 16 15 16 17 17 16 15 15 15 16 16 16 16 15
8 10 10 11 12 13 12 13 13 12 12 12 11 14 14 15 16 16 15 15 17 17 16 17 17 16 15 15 15 15 15 15 16 16 16 16 15 15 16 16 16 15 15 15
10 10 12 13 13 13 12 13 13 13 12 13 12 13 14 15 17 15 15 15 15 18 16 17 17 16 15 15 16 15 15 15 15 15 15 16 15 16 16 16 16 15 15 15
12 13 13 13 12 12 13 13 13 13 12 13 13 13 13 15 18 17 15 14 15 16 16 14 15 15 15 15 15 15 14 14 14 15 15 15 15 16 16 16 16 15 15 15
9 8 12 13 13 13 13 13 13 13 13 13 12 14 15 15 18 18 17 16 15 15 16 15 14 15 15 15 15 15 14 14 14 15 15 15 15 16 16 16 16 16 16 15
10 13 14 14 14 13 13 13 14 12 12 13 13 14 16 15 15 15 15 15 15 15 15 14 14 14 15 15 15 15 15 15 15 15 15 15 15 16 16 16 16 16 16 16
11 12 14 14 15 14 13 14 13 13 13 15 13 13 16 15 16 15 15 15 15 15 14 14 14 14 15 16 16 15 15 15 15 15 15 15 16 16 16 16 16 16 16 16
8 11 13 14 14 13 13 13 14 13 12 12 13 13 14 15 15 15 15 15 15 14 14 14 14 14 15 15 15 15 15 15 15 16 15 16 16 16 16 16 16 16 16 16
9 9 11 12 14 14 13 13 13 12 14 11 11 13 13 12 11 13 15 15 14 14 14 13 13 13 12 13 14 15 15 15 15 15 15 16 16 15 15 15 16 16 16 16
8 9 10 11 13 13 13 13 13 12 12 12 12 14 13 12 14 14 12 12 12 12 12 11 9 11 11 11 13 14 14 15 15 15 15 15 15 15 15 15 14 14 15 14
7 8 10 12 13 13 12 13 12 13 12 12 12 15 15 15 14 12 12 10 8 8 8 9 9 10 10 10 10 11 12 13 13 14 14 14 14 14 13 14 13 13 13 13
7 8 9 10 10 11 13 13 13 12 13 14 13 13 14 15 16 14 11 8 7 6 6 7 7 7 7 7 8 9 10 11 11 11 11 11 11 11 11 11 11 11 11 11
4 6 8 9 11 10 11 12 12 12 13 13 13 13 14 13 11 10 9 7 7 7 7 6 7 7 7 6 6 6 6 7 8 8 8 9 8 8 8 8 8 8 8 8
4 6 7 8 9 9 9 11 12 11 11 13 13 16 12 12 11 11 10 7 7 7 7 6 7 7 6 5 5 5 5 6 5 6 6 6 6 6 6 6 6 6 6 6
4 6 7 8 8 10 13 12 11 12 13 10 12 13 12 12 11 11 9 8 7 7 6 5 4 4 4 4 4 4 4 3 4 3 3 3 4 4 4 4 4 4 4 4
3 4 7 8 9 8 11 10 10 10 11 10 10 11 10 10 10 10 9 7 7 6 4 3 3 3 3 4 3 3 2 2 2 1 1 1 2 2 2 2 2 2 2 2
2 3 4 5 8 6 10 9 8 9 9 8 7 7 7 8 9 12 3 2 3 2 1 1 2 2 2 2 2 2 1 1 1 1 1 2 2 2 1 2 2 2 2 2
3 3 4 6 7 4 6 7 7 9 10 7 6 6 6 6 5 1 1 -0 -1 -1 -1 -0 0 -0 1 1 2 1 0 0 0 0 -0 0 0 1 1 0 0 0 0 0
3 3 2 4 3 5 5 6 7 6 6 6 6 6 5 4 2 1 -1 -1 -2 -2 -2 -1 -1 -1 -0 0 1 -1 -1 -1 -1 -1 -1 -1 -1 -1 -1 -1 -1 -1 -1 -1
2 3 3 4 5 6 4 2 1 1 4 6 6 6 4 2 2 1 -1 -2 -2 -3 -2 -2 -2 -2 -2 -1 0 -2 -2 -2 -2 -2 -2 -2 -2 -2 -2 -2 -2 -2 -2 -2
0 -3 1 2 4 4 5 2 2 3 4 4 4 5 3 4 3 1 -1 -2 -3 -3 -3 -2 -3 -3 -3 -2 -1 -1 -2 -2 -2 -3 -3 -3 -3 -3 -3 -3 -3 -3 -3 -3
2 0 1 -1 1 2 2 1 2 4 3 2 2 3 2 2 2 1 -1 -2 -2 -3 -3 -3 -3 -4 -4 -3 -2 -2 -3 -3 -3 -3 -4 -4 -4 -4 -4 -4 -4 -3 -4 -3
-0 5 5 6 7 5 4 -2 -4 -2 1 3 2 2 2 1 1 -0 -1 -2 -3 -3 -3 -3 -3 -3 -4 -4 -3 -3 -3 -3 -3 -4 -4 -4 -4 -4 -4 -4 -4 -4 -4 -4

GFSCGP_925_temp_360.txt.gz
Temp
8 6 6 6 8 10 9 10 11 13 13 12 14 13 14 16 18 17 17 16 17 18 16 16 15 15 15 15 16 15 15 15 15 15 15 15 15 15 15 16 15 15 15 15
6 6 8 9 9 9 9 10 10 14 14 11 12 13 14 16 16 17 17 17 17 17 16 16 15 15 15 15 15 15 15 15 15 15 15 15 16 16 16 16 15 15 15 15
7 9 10 9 9 9 10 10 11 14 13 12 12 14 15 15 15 16 16 17 17 17 16 16 16 15 15 15 15 15 15 16 16 15 15 15 15 15 15 15 15 15 15 15
8 10 9 9 8 10 11 10 14 13 14 13 11 15 15 15 16 16 16 15 17 17 16 16 16 16 15 15 15 15 16 16 15 16 15 15 15 14 15 15 15 15 15 15
9 9 10 10 11 11 10 12 13 13 13 12 11 13 14 14 15 16 15 15 16 17 17 17 16 16 15 15 15 15 15 15 15 16 15 15 16 16 16 16 16 15 15 15
10 10 11 12 12 12 12 13 13 12 13 13 12 12 13 14 16 15 16 15 16 17 18 17 15 15 15 15 15 15 15 15 15 15 15 16 16 15 15 16 16 15 15 15
12 11 12 13 12 12 12 12 12 12 12 13 12 13 13 14 15 16 15 15 14 17 18 17 15 15 16 15 15 15 15 15 15 15 15 15 15 15 15 15 16 15 15 15
8 8 12 13 13 13 13 12 12 11 12 13 12 13 14 14 15 16 16 15 15 15 16 16 16 16 16 15 14 15 15 15 14 14 14 14 14 13 15 15 16 16 16 15
9 12 12 12 14 14 13 12 13 12 12 13 12 13 15 14 13 16 15 15 15 15 15 15 15 16 16 16 15 15 15 14 14 14 14 14 14 14 15 14 15 16 16 16
10 11 13 13 14 14 13 13 13 12 12 14 13 13 16 14 13 15 15 14 14 14 14 14 14 15 15 15 15 14 15 15 14 14 14 13 14 15 15 15 15 16 16 16
8 10 12 13 12 12 12 12 13 12 12 12 13 14 13 14 14 15 15 15 13 13 14 14 14 14 14 14 14 14 15 15 14 14 14 14 15 15 14 15 16 16 16 16
8 9 10 11 13 12 12 12 12 12 13 10 11 14 14 11 11 13 14 13 13 13 13 13 13 14 13 13 14 15 15 15 14 14 14 14 15 15 15 15 16 16 16 16
8 9 9 10 11 12 12 12 12 11 11 11 11 14 13 11 13 13 13 12 11 11 12 11 11 13 13 13 13 14 15 15 15 15 15 15 15 15 15 16 16 15 15 15
7 7 9 11 12 12 12 12 12 12 11 11 11 14 15 14 15 14 13 12 11 10 10 10 11 12 12 12 13 13 14 15 16 15 15 15 15 15 15 15 15 14 14 14
6 7 8 9 9 10 11 12 11 12 13 13 13 12 14 14 17 15 12 9 8 8 8 10 11 10 10 10 10 11 12 14 15 14 14 14 15 14 14 13 13 13 13 13
4 6 7 8 10 9 10 11 11 12 12 13 12 12 13 13 13 12 11 9 8 7 8 8 9 8 8 9 9 10 11 11 12 12 12 13 12 12 11 11 11 10 10 10
4 6 7 7 9 9 9 10 11 12 11 13 12 15 11 12 11 11 11 9 9 8 7 6 7 8 8 8 8 8 8 9 9 9 9 9 9 9 8 8 8 8 8 8
4 5 7 7 8 9 13 11 11 12 13 10 12 12 12 12 11 9 9 10 9 7 6 5 5 5 6 6 6 6 6 6 6 6 6 6 6 6 6 5 5 5 5 5
2 4 6 8 8 8 11 11 10 11 11 9 9 9 9 7 9 10 4 3 4 6 5 4 5 5 4 5 5 5 5 5 4 3 4 4 4 4 4 4 4 4 4 4
2 3 5 4 7 6 9 9 7 9 10 7 7 7 6 6 9 9 1 0 1 -0 1 1 2 3 3 3 4 3 2 2 2 2 3 3 3 3 3 3 3 3 3 2
3 3 4 5 6 4 6 8 7 10 9 7 6 6 5 6 5 2 -0 -0 -1 -1 -1 -0 1 0 1 2 2 1 1 1 1 1 1 1 1 1 1 1 1 1 1 1
3 3 3 4 5 5 5 6 9 6 6 6 6 6 5 4 3 1 -0 -1 -2 -2 -2 -1 -2 -2 -0 1 2 -0 -0 -0 0 0 0 -0 -0 0 0 0 -0 -0 -0 -0
3 4 3 4 5 6 5 4 1 1 5 7 6 6 5 3 3 2 0 -1 -2 -2 -2 -2 -2 -2 -1 -0 1 -1 -2 -1 -1 -1 -1 -1 -1 -1 -1 -1 -1 -1 -1 -1
1 -2 1 2 4 4 5 2 3 2 3 4 4 4 4 4 3 2 -0 -1 -2 -3 -3 -2 -2 -3 -3 -1 -1 -0 -2 -2 -1 -2 -2 -2 -2 -2 -2 -2 -2 -2 -2 -3
2 1 3 0 2 3 3 2 3 2 3 3 3 3 2 2 2 1 -1 -2 -2 -2 -3 -2 -3 -3 -3 -2 -2 -2 -2 -2 -2 -3 -3 -3 -3 -3 -3 -3 -3 -3 -3 -2
-2 2 4 6 7 5 5 0 -2 0 1 3 3 3 2 1 0 1 -1 -2 -3 -3 -3 -3 -3 -3 -3 -3 -3 -3 -3 -3 -3 -4 -4 -4 -4 -4 -4 -4 -4 -4 -3 -4